Simultaneous Nadir Overpasses (SNOs) Predictions

Prediction of SNOs between LANDSAT-8 and METOP-A Satellite Orbit:

Table of predicted SNOs for the next 14.0 days since TLE Epoch: 7/2/2016
Index Date (LANDSAT-8) Time (LANDSAT-8) Lat,Lon (LANDSAT-8) SZA (LANDSAT-8 ) Date (METOP-A) Time (METOP-A) Lat,Lon (METOP-A) SZA (METOP-A ) Distance(km) Time Diff (sec)
1 07/04/2016 02:59:20 -81.15, -4.32 119.58 07/04/2016 02:58:11 -81.16, -4.28 119.60 0.92 69
2 07/04/2016 03:48:45 81.18, 163.79 60.50 07/04/2016 03:48:50 81.18, 163.68 60.48 1.99 5
3 07/06/2016 22:33:35 -81.17, 62.35 119.28 07/06/2016 22:32:31 -81.17, 62.42 119.30 1.25 64
4 07/06/2016 23:23:01 81.17,-129.93 60.74 07/06/2016 23:23:11 81.18,-130.04 60.73 1.96 10
5 07/09/2016 18:07:52 -81.16, 128.62 118.99 07/09/2016 18:06:53 -81.17, 128.73 119.00 2.13 59
6
